SCP
0 0 0 0 0 0 0 0 0 0 0 0 0 0 0 0 0 0 0 0 0 0
0 0 0 0 0 0 0 0 0 0 0 0 0 0 0 0 0 0 0 0 0 0
0 0 0 0 0 0 0 0 0 0 0 0 0 0 0 0 0 0 0 0 0 0
0 0 0 0 0 0 0 0 0 0 0 0 0 0 0 0 0 0 0 0 0 0
0 0 0 0 0 0 0 0 0 0 0 0 0 0 0 -0 -0 -0 -0 -0 -0 0
0 0 0 0 0 0 0 0 0 0 0 0 0 0 -0 -0 -0 -0 -0 -0 -0 -0
0 0 0 0 0 0 0 0 0 0 0 0 0 0 0 0 0 0 0 0 0 0
0 0 0 0 0 0 0 0 0 0 0 0 0 0 0 0 0 0 0 0 0 0
0 0 0 0 0 0 0 0 0 0 0 0 0 0 0 0 0 0 0 0 0 0
0 0 0 0 0 0 0 0 0 0 0 0 0 -0 0 0 0 0 0 0 0 0
0 0 0 0 0 0 0 0 0 -0 0 0 0 -0 0 0 0 0 0 0 0 0
0 0 0 0 0 0 0 0 0 0 -0 -0 0 -0 -0 0 0 0 0 0 0 0
0 0 0 0 0 0 0 0 0 -0 -0 -0 -0 -0 0 -0 -0 -0 0 0 0 -0
0 0 0 0 0 0 0 0 0 0 -0 -0 -0 -0 -0 0 0 -0 0 0 0 0
Wind_Speed_500mb
21 30 25 29 42 46 44 53 50 48 50 61 50 44 44 43 37 30 30 28 27 27
24 25 34 43 40 48 54 54 56 64 60 48 47 45 41 33 32 33 27 24 22 21
37 38 38 45 57 58 55 56 61 57 48 54 48 47 29 32 28 26 20 17 18 15
36 38 45 55 56 52 57 56 50 47 48 41 37 18 23 24 25 21 20 20 21 16
41 51 59 57 60 53 49 41 37 39 38 28 22 23 25 26 27 26 23 23 20 18
53 55 61 56 51 52 45 33 32 34 32 24 26 24 28 27 29 33 27 28 28 24
48 56 52 44 47 42 38 34 31 28 28 25 25 26 27 28 29 25 27 21 20 23
50 48 53 39 45 44 39 34 34 30 27 27 26 28 30 23 27 25 34 25 23 13
45 53 36 43 36 37 37 37 34 35 31 30 31 28 23 28 30 39 26 27 28 27
43 40 35 36 40 38 36 32 33 32 31 33 28 38 41 25 24 32 27 26 30 27
43 35 35 31 35 36 33 32 32 30 28 29 33 39 40 33 33 31 35 30 33 35
26 27 32 34 36 33 33 31 31 34 30 28 31 40 27 28 35 35 36 38 34 35
21 30 35 30 33 30 34 32 32 36 35 26 26 25 31 33 42 50 47 42 42 38
33 25 36 33 31 27 30 33 31 32 31 34 30 25 24 24 32 53 63 55 50 43
Wind_Direction_500mb
291 303 313 320 317 321 325 325 320 314 311 315 311 315 315 313 307 306 304 298 299 294
319 330 322 328 330 333 340 332 326 319 319 319 321 322 318 322 310 307 304 302 303 298
346 344 344 338 338 337 332 325 325 329 330 322 321 315 312 321 319 316 318 311 315 309
352 340 332 336 339 333 330 330 332 334 339 336 340 356 339 333 339 340 330 325 313 293
343 341 342 342 337 344 348 345 344 349 349 4 1 353 348 347 346 341 328 322 308 294
342 343 347 352 356 352 357 3 6 12 10 13 359 7 353 347 341 331 323 311 298 283
349 352 1 3 7 10 15 26 20 19 12 5 4 3 360 353 353 355 349 347 335 323
352 0 355 3 7 23 28 26 18 15 19 17 13 9 12 355 360 20 10 13 3 41
357 352 4 14 17 28 27 26 30 25 21 17 14 25 6 356 355 354 20 36 55 89
351 356 13 14 16 19 22 25 27 24 24 30 37 18 15 33 31 34 48 68 78 84
356 21 12 24 18 29 27 25 27 22 24 31 31 27 17 40 45 58 63 77 80 87
12 16 15 16 19 28 30 31 31 28 30 37 40 43 60 50 45 71 76 76 85 97
8 26 16 23 22 31 36 32 38 42 37 43 52 62 65 59 61 74 83 83 81 85
23 45 24 23 29 30 41 49 39 30 38 45 56 71 66 63 72 75 77 79 83 87
Wind_Speed_850mb
21 30 25 29 42 46 44 53 50 48 50 61 50 44 44 43 37 30 30 28 27 27
24 25 34 43 40 48 54 54 56 64 60 48 47 45 41 33 32 33 27 24 22 21
37 38 38 45 57 58 55 56 61 57 48 54 48 47 29 32 28 26 20 17 18 15
36 38 45 55 56 52 57 56 50 47 48 41 37 18 23 24 25 21 20 20 21 16
41 51 59 57 60 53 49 41 37 39 38 28 22 23 25 26 27 26 23 23 20 18
53 55 61 56 51 52 45 33 32 34 32 24 26 24 28 27 29 33 27 28 28 24
48 56 52 44 47 42 38 34 31 28 28 25 25 26 27 28 29 25 27 21 20 23
50 48 53 39 45 44 39 34 34 30 27 27 26 28 30 23 27 25 34 25 23 13
45 53 36 43 36 37 37 37 34 35 31 30 31 28 23 28 30 39 26 27 28 27
43 40 35 36 40 38 36 32 33 32 31 33 28 38 41 25 24 32 27 26 30 27
43 35 35 31 35 36 33 32 32 30 28 29 33 39 40 33 33 31 35 30 33 35
26 27 32 34 36 33 33 31 31 34 30 28 31 40 27 28 35 35 36 38 34 35
21 30 35 30 33 30 34 32 32 36 35 26 26 25 31 33 42 50 47 42 42 38
33 25 36 33 31 27 30 33 31 32 31 34 30 25 24 24 32 53 63 55 50 43
Wind_Direction_850mb
291 303 313 320 317 321 325 325 320 314 311 315 311 315 315 313 307 306 304 298 299 294
319 330 322 328 330 333 340 332 326 319 319 319 321 322 318 322 310 307 304 302 303 298
346 344 344 338 338 337 332 325 325 329 330 322 321 315 312 321 319 316 318 311 315 309
352 340 332 336 339 333 330 330 332 334 339 336 340 356 339 333 339 340 330 325 313 293
343 341 342 342 337 344 348 345 344 349 349 4 1 353 348 347 346 341 328 322 308 294
342 343 347 352 356 352 357 3 6 12 10 13 359 7 353 347 341 331 323 311 298 283
349 352 1 3 7 10 15 26 20 19 12 5 4 3 360 353 353 355 349 347 335 323
352 0 355 3 7 23 28 26 18 15 19 17 13 9 12 355 360 20 10 13 3 41
357 352 4 14 17 28 27 26 30 25 21 17 14 25 6 356 355 354 20 36 55 89
351 356 13 14 16 19 22 25 27 24 24 30 37 18 15 33 31 34 48 68 78 84
356 21 12 24 18 29 27 25 27 22 24 31 31 27 17 40 45 58 63 77 80 87
12 16 15 16 19 28 30 31 31 28 30 37 40 43 60 50 45 71 76 76 85 97
8 26 16 23 22 31 36 32 38 42 37 43 52 62 65 59 61 74 83 83 81 85
23 45 24 23 29 30 41 49 39 30 38 45 56 71 66 63 72 75 77 79 83 87